Previsão horária em Cel

Hoje, 31 Julho, Sábado

Tempo Temperatura Precipitação Vento Pressão Humidade
00:00 +19°C° 0 mm 2 m/s 741 mmHg 77%
01:00 +19°C° 0 mm 2 m/s 742 mmHg 77%
02:00 +18°C° 0 mm 2 m/s 742 mmHg 77%
03:00 +18°C° 0 mm 2 m/s 742 mmHg 79%
04:00 +17°C° 0 mm 2 m/s 742 mmHg 81%
05:00 +16°C° 0 mm 2 m/s 742 mmHg 84%
06:00 +18°C° 0 mm 2 m/s 742 mmHg 75%
07:00 +20°C° 0 mm 3 m/s 742 mmHg 67%
08:00 +22°C° 0 mm 3 m/s 742 mmHg 59%
09:00 +25°C° 0 mm 4 m/s 742 mmHg 53%
10:00 +26°C° 0 mm 4 m/s 742 mmHg 48%
11:00 +27°C° 0 mm 5 m/s 743 mmHg 43%
12:00 +28°C° 0 mm 4 m/s 742 mmHg 41%
13:00 +29°C° 0 mm 4 m/s 742 mmHg 40%
14:00 +30°C° 0 mm 4 m/s 742 mmHg 39%
15:00 +30°C° 0 mm 4 m/s 742 mmHg 41%
16:00 +30°C° 0 mm 3 m/s 742 mmHg 42%
17:00 +30°C° 0 mm 3 m/s 742 mmHg 44%
18:00 +27°C° 0 mm 2 m/s 742 mmHg 52%
19:00 +25°C° 0 mm 1 m/s 742 mmHg 59%
20:00 +21°C° 0 mm 0 m/s 742 mmHg 67%
21:00 +23°C° 0.2 mm 1 m/s 742 mmHg 71%
22:00 +22°C° 0.2 mm 1 m/s 742 mmHg 74%
23:00 +20°C° 0.2 mm 2 m/s 742 mmHg 78%

Amanhã, 1 Agosto, Domingo

Tempo Temperatura Precipitação Vento Pressão Humidade
00:00 +20°C° 0.9 mm 2 m/s 742 mmHg 84%
01:00 +19°C° 0.9 mm 2 m/s 742 mmHg 90%
02:00 +19°C° 0.9 mm 2 m/s 742 mmHg 96%
03:00 +19°C° 0 mm 2 m/s 742 mmHg 95%
04:00 +19°C° 0 mm 2 m/s 742 mmHg 95%
05:00 +19°C° 0 mm 2 m/s 742 mmHg 95%
06:00 +20°C° 0 mm 3 m/s 742 mmHg 91%
07:00 +20°C° 0 mm 3 m/s 743 mmHg 87%
08:00 +21°C° 0 mm 4 m/s 743 mmHg 84%
09:00 +23°C° 0 mm 4 m/s 743 mmHg 72%
10:00 +26°C° 0 mm 3 m/s 743 mmHg 60%
11:00 +28°C° 0 mm 3 m/s 743 mmHg 49%
12:00 +28°C° 0 mm 3 m/s 743 mmHg 44%
13:00 +29°C° 0 mm 3 m/s 743 mmHg 40%
14:00 +30°C° 0 mm 3 m/s 743 mmHg 35%
15:00 +29°C° 0 mm 3 m/s 743 mmHg 37%
16:00 +29°C° 0 mm 3 m/s 743 mmHg 38%
17:00 +29°C° 0 mm 3 m/s 743 mmHg 40%
18:00 +27°C° 0 mm 2 m/s 742 mmHg 47%
19:00 +25°C° 0 mm 2 m/s 742 mmHg 54%
20:00 +23°C° 0 mm 2 m/s 742 mmHg 61%
21:00 +21°C° 0 mm 2 m/s 742 mmHg 64%
22:00 +20°C° 0 mm 2 m/s 742 mmHg 68%
23:00 +19°C° 0 mm 2 m/s 742 mmHg 71%

Depois de amanhã, 2 Agosto, Segunda-feira

Tempo Temperatura Precipitação Vento Pressão Humidade
00:00 +18°C° 0.7 mm 2 m/s 741 mmHg 79%
01:00 +18°C° 0.7 mm 2 m/s 741 mmHg 86%
02:00 +17°C° 0.7 mm 3 m/s 741 mmHg 93%
03:00 +18°C° 0.6 mm 2 m/s 740 mmHg 93%
04:00 +18°C° 0.6 mm 2 m/s 740 mmHg 94%
05:00 +18°C° 0.6 mm 2 m/s 739 mmHg 94%
06:00 +19°C° 0.1 mm 2 m/s 739 mmHg 92%
07:00 +20°C° 0.1 mm 3 m/s 739 mmHg 91%
08:00 +21°C° 0.1 mm 3 m/s 739 mmHg 89%
09:00 +24°C° 0.1 mm 3 m/s 739 mmHg 80%
10:00 +25°C° 0.1 mm 4 m/s 739 mmHg 71%
11:00 +27°C° 0.1 mm 4 m/s 739 mmHg 61%
12:00 +26°C° 0.5 mm 4 m/s 739 mmHg 65%
13:00 +26°C° 0.5 mm 5 m/s 739 mmHg 69%
14:00 +25°C° 0.5 mm 5 m/s 739 mmHg 72%
15:00 +23°C° 0.4 mm 5 m/s 739 mmHg 77%
16:00 +21°C° 0.4 mm 5 m/s 739 mmHg 81%
17:00 +19°C° 0.4 mm 5 m/s 739 mmHg 86%
18:00 +17°C° 0 mm 5 m/s 740 mmHg 86%
19:00 +16°C° 0 mm 5 m/s 740 mmHg 87%
20:00 +15°C° 0 mm 4 m/s 741 mmHg 88%
21:00 +15°C° 0 mm 4 m/s 741 mmHg 89%
22:00 +15°C° 0 mm 4 m/s 741 mmHg 89%
23:00 +15°C° 0 mm 4 m/s 742 mmHg 90%

3 Agosto, Terça-feira

Tempo Temperatura Precipitação Vento Pressão Humidade
00:00 +15°C° 0 mm 4 m/s 742 mmHg 89%
01:00 +15°C° 0 mm 4 m/s 742 mmHg 88%
02:00 +16°C° 0 mm 3 m/s 742 mmHg 87%
03:00 +16°C° 0 mm 3 m/s 743 mmHg 86%
04:00 +16°C° 0 mm 3 m/s 743 mmHg 86%
05:00 +16°C° 0 mm 3 m/s 743 mmHg 85%
06:00 +16°C° 0 mm 3 m/s 744 mmHg 83%
07:00 +17°C° 0 mm 2 m/s 744 mmHg 81%
08:00 +17°C° 0 mm 2 m/s 744 mmHg 79%
09:00 +18°C° 0.2 mm 3 m/s 744 mmHg 72%
10:00 +20°C° 0.2 mm 3 m/s 745 mmHg 66%
11:00 +21°C° 0.2 mm 3 m/s 745 mmHg 59%
12:00 +22°C° 0.1 mm 4 m/s 745 mmHg 53%
13:00 +23°C° 0.1 mm 5 m/s 745 mmHg 47%
14:00 +23°C° 0.1 mm 5 m/s 745 mmHg 42%
15:00 +23°C° 0.1 mm 5 m/s 745 mmHg 47%
16:00 +22°C° 0.1 mm 5 m/s 745 mmHg 53%
17:00 +22°C° 0.1 mm 5 m/s 745 mmHg 58%
18:00 +20°C° 0 mm 4 m/s 746 mmHg 65%
19:00 +19°C° 0 mm 3 m/s 746 mmHg 71%
20:00 +17°C° 0 mm 2 m/s 746 mmHg 77%
21:00 +16°C° 0 mm 2 m/s 746 mmHg 82%
22:00 +15°C° 0 mm 2 m/s 747 mmHg 86%
23:00 +15°C° 0 mm 2 m/s 747 mmHg 91%

4 Agosto, Quarta-feira

Tempo Temperatura Precipitação Vento Pressão Humidade
00:00 +14°C° 0 mm 2 m/s 747 mmHg 91%
01:00 +14°C° 0 mm 2 m/s 747 mmHg 92%
02:00 +13°C° 0 mm 2 m/s 747 mmHg 92%
03:00 +13°C° 0 mm 1 m/s 748 mmHg 92%
04:00 +13°C° 0 mm 1 m/s 748 mmHg 92%
05:00 +13°C° 0 mm 1 m/s 748 mmHg 92%
06:00 +15°C° 0 mm 1 m/s 748 mmHg 83%
07:00 +18°C° 0 mm 1 m/s 748 mmHg 75%
08:00 +20°C° 0 mm 1 m/s 749 mmHg 67%
09:00 +21°C° 0 mm 1 m/s 749 mmHg 61%
10:00 +23°C° 0 mm 1 m/s 749 mmHg 54%
11:00 +24°C° 0 mm 1 m/s 749 mmHg 48%
12:00 +25°C° 0 mm 1 m/s 748 mmHg 46%
13:00 +26°C° 0 mm 1 m/s 748 mmHg 43%
14:00 +26°C° 0 mm 1 m/s 748 mmHg 41%
15:00 +25°C° 0 mm 1 m/s 747 mmHg 46%
16:00 +25°C° 0 mm 1 m/s 747 mmHg 50%
17:00 +24°C° 0 mm 1 m/s 747 mmHg 54%
18:00 +23°C° 0 mm 1 m/s 747 mmHg 56%
19:00 +21°C° 0 mm 2 m/s 747 mmHg 57%
20:00 +20°C° 0 mm 2 m/s 747 mmHg 59%
21:00 +19°C° 0 mm 2 m/s 747 mmHg 61%
22:00 +19°C° 0 mm 2 m/s 746 mmHg 63%
23:00 +18°C° 0 mm 2 m/s 746 mmHg 66%

5 Agosto, Quinta-feira

Tempo Temperatura Precipitação Vento Pressão Humidade
00:00 +17°C° 0 mm 2 m/s 746 mmHg 68%
01:00 +17°C° 0 mm 2 m/s 746 mmHg 70%
02:00 +17°C° 0 mm 2 m/s 746 mmHg 72%
03:00 +16°C° 0.7 mm 3 m/s 745 mmHg 79%
04:00 +16°C° 0.7 mm 3 m/s 745 mmHg 86%
05:00 +16°C° 0.7 mm 3 m/s 745 mmHg 94%
06:00 +16°C° 2.1 mm 3 m/s 744 mmHg 94%
07:00 +15°C° 2.1 mm 4 m/s 744 mmHg 94%
08:00 +15°C° 2.1 mm 4 m/s 744 mmHg 94%
09:00 +15°C° 3 mm 4 m/s 744 mmHg 95%
10:00 +15°C° 3 mm 4 m/s 743 mmHg 96%
11:00 +17°C° 3 mm 4 m/s 743 mmHg 97%
12:00 +17°C° 1.2 mm 4 m/s 743 mmHg 97%
13:00 +17°C° 1.2 mm 4 m/s 743 mmHg 96%
14:00 +18°C° 1.2 mm 3 m/s 743 mmHg 96%
15:00 +18°C° 0.4 mm 3 m/s 743 mmHg 94%
16:00 +19°C° 0.4 mm 3 m/s 743 mmHg 92%
17:00 +20°C° 0.4 mm 3 m/s 742 mmHg 90%
18:00 +19°C° 0.3 mm 2 m/s 742 mmHg 90%
19:00 +18°C° 0.3 mm 2 m/s 743 mmHg 91%
20:00 +18°C° 0.3 mm 1 m/s 743 mmHg 92%
21:00 +18°C° 0 mm 1 m/s 743 mmHg 92%
22:00 +16°C° 0 mm 1 m/s 743 mmHg 93%
23:00 +16°C° 0 mm 1 m/s 743 mmHg 93%
Mostrar mais

Necessitamos do seu Consentimento

A Meteoprog e os seus Fornecedores de Serviços podem armazenar e aceder a dados pessoais como cookies, identificadores do dispositivo ou outras tecnologias semelhantes existentes no seu dispositivo e processar estes dados para personalizar conteúdos e anúncios, assim como funcionalidades nas redes sociais e análise de tráfego.

  • Armazenar e/ou aceder a informações no seu dispositivo

    Os cookies, identificadores do dispositivo ou outras informações podem ser armazenados ou acedidos no seu dispositivo, para os fins acima indicados.

  • Anúncios e conteúdos personalizados, medição de anúncios e conteúdos, dados sobre o público-alvo e desenvolvimento de produtos

    Os anúncios e os conteúdos podem ser personalizados com base num perfil. Podem ser adicionados dados adicionais para uma maior personalização dos anúncios e dos conteúdos. A eficácia dos anúncios e dos conteúdos pode ser medida. Podem ser obtidas informações sobre o público que visualizou os anúncios e os conteúdos. Estes dados podem ser usados para desenvolver ou melhorar sistemas, softwares ou a experiência do utilizador.

Ao clicar em "Eu concordo”, permitirá o uso de cookies, identificadores do dispositivo e web beacons mencionados ou outras tecnologias semelhantes. As configurações do navegador do seu dispositivo podem ser alteradas.

Para certos fins, podem ser invocados interesses legítimos ao invés de consentimento. Pode ler mais informação sobre este assunto na nossa Política de Privacidade e Cookies.